[[{"header":{"parameterUnit":"m.s-1","parameterCategory":1,"la1":30.2991,"la2":30.254,"lo1":-89.0895,"lo2":-89.0444,"dy":0.0017,"dx":0.0017,"nx":28,"ny":28,"refTime":"2023-03-19T21:00:00:Z","depth":0,"parameterNumber":2,"parameterNumberName":"U-component_of_WINDS"},"data":[0,0,0,0,0,0,0,0,0,0,0,0,0,0,0,0,0,0,0,0,0,0,0,0,0,0,0,0,0,0,0,0,0,0,0,0,0,0,0,0,0,0,0,0,0,0,0,0,0,0,0,0,0,0,0,0,0,0,-2.1143,-2.1143,0,-2.1147,-2.1147,-2.1147,-2.1114,-2.1113,-2.1112,-2.1111,-2.1116,-2.1117,-2.1118,0,0,0,0,0,0,0,0,0,0,0,0,0,-2.1106,-2.1107,-2.1143,-2.1143,-2.1143,-2.1147,-2.1147,-2.1147,-2.1114,-2.1113,-2.1112,-2.1111,-2.1116,-2.1117,-2.1118,0,0,0,0,0,0,0,0,0,0,0,0,0,-2.1117,-2.1107,-2.1143,-2.1127,-2.1126,-2.1147,-2.1147,-2.1147,-2.1115,-2.1113,-2.1112,-2.1111,-2.1115,-2.1117,-2.1118,-2.1155,0,0,-2.1123,-2.1123,0,0,0,0,0,0,0,0,-2.1117,-2.1119,-2.1129,-2.1128,-2.1127,-2.1129,-2.1136,-2.115,-2.1115,-2.1119,-2.1111,-2.111,-2.1121,-2.1122,-2.1126,-2.1155,-2.1155,-2.1123,-2.1124,-2.1124,-2.1125,0,0,0,0,0,0,0,-2.1116,-2.1118,-2.1145,-2.113,-2.1128,-2.112,-2.112,-2.1138,-2.1128,-2.1118,-2.1116,-2.1117,-2.112,-2.1125,-2.1126,-2.1155,-2.1123,-2.1124,-2.1125,-2.1125,-2.1214,-2.1215,0,0,0,0,0,0,-2.1117,-2.1118,-2.1145,-2.1145,-2.1118,-2.1122,-2.1122,-2.113,-2.1128,-2.1126,-2.1118,-2.1115,-2.1123,-2.1124,-2.1126,-2.1168,-2.1124,-2.1126,-2.1126,-2.1212,-2.1214,-2.1215,0,0,0,0,0,0,-2.1117,-2.112,-2.1144,-2.1131,-2.1133,-2.1124,-2.1133,-2.113,-2.1135,-2.1127,-2.1125,-2.1125,-2.1122,-2.1124,-2.1148,-2.1167,-2.1126,-2.1128,-2.121,-2.1213,-2.1215,-2.1252,0,0,0,0,0,0,-2.1116,-2.112,-2.1134,-2.1131,-2.1134,-2.1166,-2.1134,-2.1131,-2.1137,-2.1134,-2.1133,-2.1131,-2.1121,-2.1146,-2.1149,-2.1169,-2.1129,-2.1209,-2.1211,-2.1214,-2.1249,-2.1255,-2.1261,0,0,0,0,0,-2.1115,-2.1145,-2.1135,-2.1138,-2.1151,-2.1167,-2.1169,-2.1156,-2.1139,-2.1153,-2.1148,-2.1131,-2.1165,-2.1148,-2.1152,-2.1172,-2.1207,-2.1211,-2.1214,-2.1247,-2.1254,-2.1261,0,0,0,0,0,0,-2.115,-2.1144,-2.1133,-2.1163,-2.1166,-2.1162,-2.1179,-2.1165,-2.1173,-2.1169,-2.1153,-2.1153,-2.118,-2.1179,-2.116,-2.1207,-2.1183,-2.1187,-2.1207,-2.1214,-2.122,-2.1219,-2.113,0,0,0,0,0,-2.1162,-2.1175,-2.1169,-2.1197,-2.1198,-2.1189,-2.1195,-2.1185,-2.1187,-2.1188,-2.1185,-2.1188,-2.1199,-2.1207,-2.1217,-2.1249,-2.1248,-2.1265,-2.1271,-2.1276,-2.1279,-2.1295,-2.1302,-2.1226,-2.1226,-2.1226,0,0,-2.1185,-2.1184,-2.1193,-2.1204,-2.1205,-2.1218,-2.119,-2.1206,-2.1216,-2.1191,-2.1212,-2.1211,-2.1213,-2.1241,-2.1253,-2.1241,-2.13,-2.128,-2.1284,-2.1284,-2.1299,-2.1306,-2.1313,-2.1228,-2.1228,-2.1228,0,0,-2.1235,-2.1236,-2.1258,-2.1259,-2.1261,-2.1254,-2.126,-2.1257,-2.1255,-2.1276,-2.1257,-2.1269,-2.1289,-2.1291,-2.1294,-2.1345,-2.1329,-2.1348,-2.1378,-2.1394,-2.14,-2.1405,-2.1421,-2.1428,-2.1352,-2.1352,-2.1352,0,-2.1264,-2.1285,-2.1271,-2.1288,-2.1293,-2.1271,-2.1292,-2.1295,-2.13,-2.1303,-2.129,-2.1313,-2.1313,-2.134,-2.1353,-2.1357,-2.1362,-2.1348,-2.14,-2.1405,-2.141,-2.1425,-2.1432,-2.1354,-2.1354,-2.1354,-2.1354,0,-2.1319,-2.1334,-2.1351,-2.1356,-2.1363,-2.1383,-2.1372,-2.138,-2.137,-2.1364,-2.1386,-2.1386,-2.1394,-2.14,-2.1391,-2.1426,-2.1418,-2.1403,-2.1378,-2.1419,-2.1434,-2.144,-2.1358,-2.1357,-2.1356,-2.1356,0,0,-2.1391,-2.1388,-2.1394,-2.1396,-2.1396,-2.1407,-2.1425,-2.1433,-2.144,-2.1445,-2.1459,-2.1476,-2.1461,-2.1466,-2.1456,-2.147,-2.1508,-2.1452,-2.1452,-2.1461,-2.1546,-2.1556,-2.1563,-2.1498,-2.1499,-2.15,-2.1545,0,-2.1438,-2.1469,-2.1457,-2.1489,-2.1501,-2.148,-2.1496,-2.1498,-2.1493,-2.1503,-2.1498,-2.151,-2.149,-2.1492,-2.1506,-2.1501,-2.1524,-2.1497,-2.1511,-2.1511,-2.1509,-2.1571,-2.1582,-2.1624,-2.1551,-2.1552,-2.1552,0,-2.1497,-2.1503,-2.1536,-2.1533,-2.1538,-2.1552,-2.1558,-2.1568,-2.157,-2.1565,-2.157,-2.1557,-2.1574,-2.1551,-2.1574,-2.1556,-2.1561,-2.1559,-2.156,-2.156,-2.1533,-2.1571,-2.1638,-2.1643,-2.1561,-2.156,-2.156,0,-2.1544,-2.1561,-2.1582,-2.1584,-2.1581,-2.1592,-2.1591,-2.1591,-2.1597,-2.1602,-2.1605,-2.1614,-2.1617,-2.1624,-2.1613,-2.1597,-2.1637,-2.1613,-2.1633,-2.1634,-2.1642,-2.1641,-2.1709,-2.1648,-2.1648,-2.1647,-2.1647,0,-2.1597,-2.1617,-2.1602,-2.1615,-2.1637,-2.1624,-2.1646,-2.1643,-2.1643,-2.1655,-2.1638,-2.165,-2.1636,-2.1646,-2.1638,-2.1657,-2.166,-2.1656,-2.1654,-2.1657,-2.1657,-2.1658,-2.1655,-2.1649,-2.1649,-2.1648,-2.1648,0,-2.1652,-2.1643,-2.1665,-2.1661,-2.166,-2.1676,-2.1673,-2.1684,-2.1679,-2.1694,-2.1696,-2.1688,-2.1698,-2.1689,-2.17,-2.1694,-2.172,-2.1714,-2.1719,-2.1717,-2.1737,-2.1735,-2.1807,-2.1815,-2.175,-2.1751,-2.1751,0,-2.1686,-2.1701,-2.1698,-2.1704,-2.1705,-2.1716,-2.1721,-2.1708,-2.1715,-2.1717,-2.1728,-2.1738,-2.1744,-2.1762,-2.1757,-2.1765,-2.1758,-2.1783,-2.1759,-2.1761,-2.1756,-2.1755,-2.1755,-2.1787,-2.1788,-2.1788,-2.1789,0,-2.1746,-2.174,-2.1748,-2.1755,-2.1762,-2.1766,-2.177,-2.1776,-2.1763,-2.1771,-2.1781,-2.1787,-2.1797,-2.1806,-2.1812,-2.1812,-2.1798,-2.1797,-2.1801,-2.1804,-2.1806,-2.1803,-2.173,-2.1795,-2.1794,-2.1794,-2.1793,-2.1793,-2.179,-2.1802,-2.1801,-2.1811,-2.1812,-2.1815,-2.1825,-2.1821,-2.1829,-2.1837,-2.1829,-2.1842,-2.1842,-2.1849,-2.185,-2.1859,-2.1849,-2.1856,-2.1858,-2.1859,-2.1862,-2.1806,-2.1861,-2.1861,-2.186,-2.186,-2.186,0,-2.1847,-2.1846,-2.1855,-2.1859,-2.1867,-2.1854,-2.1856,-2.1863,-2.1874,-2.1876,-2.1883,-2.1895,-2.1904,-2.1899,-2.1906,-2.1915,-2.1909,-2.1917,-2.1915,-2.1915,-2.1871,-2.1866,-2.1922,-2.1922,-2.1922,-2.1922,-2.1922,-2.1922,-2.1878,-2.1896,-2.1891,-2.191,-2.1909,-2.1921,-2.1923,-2.1926,-2.1927,-2.1941,-2.1948,-2.1945,-2.1944,-2.1951,-2.1958,-2.1957,-2.1959,-2.197,-2.1966,-2.1925,-2.1918,-2.1913,-2.1907,-2.1971,-2.1971,-2.2009,-2.2009,-2.2009]},{"header":{"parameterUnit":"m.s-1","parameterCategory":1,"la1":30.2991,"la2":30.254,"lo1":-89.0895,"lo2":-89.0444,"dy":0.0017,"dx":0.0017,"nx":28,"ny":28,"refTime":"2023-03-19T21:00:00:Z","depth":0,"parameterNumber":3,"parameterNumberName":"V-component_of_WINDS"},"data":[0,0,0,0,0,0,0,0,0,0,0,0,0,0,0,0,0,0,0,0,0,0,0,0,0,0,0,0,0,0,0,0,0,0,0,0,0,0,0,0,0,0,0,0,0,0,0,0,0,0,0,0,0,0,0,0,0,0,-2.299,-2.2991,0,-2.3111,-2.3112,-2.3113,-2.3146,-2.3146,-2.3145,-2.3144,-2.3265,-2.3269,-2.3273,0,0,0,0,0,0,0,0,0,0,0,0,0,-2.2785,-2.2789,-2.299,-2.2991,-2.2993,-2.311,-2.3112,-2.3114,-2.3146,-2.3146,-2.3145,-2.3144,-2.3264,-2.3269,-2.3273,0,0,0,0,0,0,0,0,0,0,0,0,0,-2.2887,-2.279,-2.299,-2.3023,-2.3028,-2.311,-2.3112,-2.3114,-2.3147,-2.3145,-2.3144,-2.3143,-2.3263,-2.3268,-2.3274,-2.3331,0,0,-2.3292,-2.3294,0,0,0,0,0,0,0,0,-2.2881,-2.2894,-2.3017,-2.3021,-2.3026,-2.3112,-2.3084,-2.3187,-2.3147,-2.3101,-2.3144,-2.3143,-2.3215,-2.3225,-2.325,-2.3336,-2.3342,-2.3292,-2.3296,-2.3298,-2.33,0,0,0,0,0,0,0,-2.2874,-2.2889,-2.3038,-2.3019,-2.3024,-2.3032,-2.3045,-2.3104,-2.3163,-2.3105,-2.3108,-2.3122,-2.3217,-2.3244,-2.3253,-2.3343,-2.3292,-2.3297,-2.3301,-2.3303,-2.3482,-2.3484,0,0,0,0,0,0,-2.2861,-2.2883,-2.3034,-2.3041,-2.295,-2.3036,-2.3051,-2.3086,-2.3162,-2.3173,-2.3123,-2.3123,-2.3235,-2.3246,-2.3257,-2.3328,-2.3298,-2.3304,-2.3307,-2.3481,-2.3483,-2.3484,0,0,0,0,0,0,-2.2857,-2.2874,-2.3029,-2.2963,-2.2983,-2.3041,-2.3079,-2.3089,-2.3115,-2.3175,-2.3186,-2.3139,-2.3234,-2.3249,-2.3312,-2.3333,-2.3306,-2.3312,-2.348,-2.3482,-2.3483,-2.3471,0,0,0,0,0,0,-2.2851,-2.2873,-2.2895,-2.2963,-2.2987,-2.3083,-2.3081,-2.3092,-2.3125,-2.3127,-2.3193,-2.3203,-2.3235,-2.3303,-2.3318,-2.3341,-2.3316,-2.3478,-2.348,-2.3483,-2.347,-2.3472,-2.3475,0,0,0,0,0,-2.2843,-2.2887,-2.2896,-2.2914,-2.3016,-2.3084,-2.3097,-2.3133,-2.3127,-2.315,-2.3188,-2.3201,-2.3328,-2.331,-2.3326,-2.3351,-2.3477,-2.348,-2.3483,-2.3469,-2.3472,-2.3475,0,0,0,0,0,0,-2.2819,-2.2896,-2.2908,-2.2975,-2.3022,-2.3089,-2.3119,-2.3135,-2.3185,-2.3184,-2.3225,-2.324,-2.33,-2.3332,-2.331,-2.341,-2.3403,-2.3409,-2.3387,-2.339,-2.3392,-2.3383,-2.3321,0,0,0,0,0,-2.2821,-2.2871,-2.2935,-2.2988,-2.3011,-2.3061,-2.3092,-2.3115,-2.3166,-2.3186,-2.3229,-2.3278,-2.3329,-2.3361,-2.3411,-2.3475,-2.3489,-2.35,-2.3502,-2.3504,-2.3509,-2.3544,-2.3549,-2.3493,-2.3493,-2.3493,0,0,-2.2827,-2.2875,-2.2903,-2.2984,-2.3024,-2.3073,-2.3078,-2.313,-2.3166,-2.3194,-2.3257,-2.329,-2.3346,-2.341,-2.344,-2.3438,-2.3527,-2.3507,-2.3508,-2.3512,-2.3548,-2.3553,-2.3557,-2.3495,-2.3495,-2.3495,0,0,-2.2862,-2.2904,-2.2952,-2.2992,-2.3053,-2.3085,-2.3097,-2.3162,-2.3185,-2.3249,-2.327,-2.3314,-2.3401,-2.344,-2.3471,-2.3521,-2.3535,-2.3536,-2.3548,-2.3582,-2.3586,-2.3591,-2.3608,-2.3614,-2.3541,-2.3541,-2.3541,0,-2.286,-2.2936,-2.2974,-2.3026,-2.306,-2.3088,-2.3137,-2.3173,-2.3247,-2.327,-2.3267,-2.3376,-2.3416,-2.3489,-2.3501,-2.3526,-2.354,-2.3529,-2.3583,-2.3587,-2.3592,-2.3609,-2.3615,-2.3541,-2.3541,-2.3541,-2.3541,0,-2.2931,-2.2984,-2.3015,-2.3086,-2.3124,-2.3174,-2.3219,-2.3253,-2.3273,-2.3305,-2.3369,-2.3419,-2.3479,-2.3498,-2.3518,-2.3574,-2.3571,-2.3575,-2.3569,-2.3596,-2.3613,-2.362,-2.354,-2.3541,-2.3541,-2.3541,0,0,-2.2954,-2.3046,-2.3057,-2.3089,-2.3158,-2.3199,-2.3249,-2.3309,-2.3337,-2.3387,-2.3429,-2.3502,-2.3507,-2.3542,-2.3567,-2.3597,-2.3632,-2.3597,-2.3599,-2.3601,-2.3696,-2.3692,-2.3699,-2.3642,-2.3643,-2.3644,-2.3691,0,-2.2997,-2.3089,-2.3125,-2.32,-2.3248,-2.3275,-2.3319,-2.3366,-2.3398,-2.3443,-2.3478,-2.3529,-2.3531,-2.3552,-2.3583,-2.3621,-2.3652,-2.3618,-2.3681,-2.3683,-2.3666,-2.3708,-2.3704,-2.3746,-2.3698,-2.3699,-2.37,0,-2.306,-2.3111,-2.319,-2.3253,-2.3275,-2.3314,-2.3371,-2.3414,-2.3467,-2.3489,-2.3528,-2.3551,-2.3604,-2.3595,-2.3668,-2.3645,-2.3672,-2.3695,-2.3697,-2.3704,-2.3693,-2.3715,-2.376,-2.3766,-2.3711,-2.371,-2.3709,0,-2.3067,-2.3156,-2.3215,-2.3242,-2.3317,-2.3344,-2.3376,-2.3428,-2.3462,-2.3512,-2.3534,-2.3589,-2.3619,-2.3661,-2.3698,-2.3688,-2.3768,-2.3762,-2.3786,-2.3785,-2.3801,-2.3799,-2.3851,-2.382,-2.382,-2.3819,-2.3819,0,-2.3112,-2.3159,-2.322,-2.3256,-2.331,-2.335,-2.3402,-2.3436,-2.3482,-2.3525,-2.3552,-2.3591,-2.3637,-2.3682,-2.3711,-2.3767,-2.3781,-2.3799,-2.3806,-2.3796,-2.3794,-2.3815,-2.3812,-2.3821,-2.3821,-2.382,-2.382,0,-2.3129,-2.3172,-2.3238,-2.3304,-2.3321,-2.3358,-2.3414,-2.345,-2.3483,-2.3537,-2.3551,-2.3603,-2.3658,-2.3699,-2.3769,-2.3789,-2.3848,-2.3856,-2.383,-2.3834,-2.3856,-2.3853,-2.3922,-2.3933,-2.3895,-2.3895,-2.3895,0,-2.3154,-2.3191,-2.3261,-2.3292,-2.3325,-2.3374,-2.3409,-2.345,-2.3485,-2.3548,-2.3576,-2.3632,-2.368,-2.3765,-2.3809,-2.3863,-2.3872,-2.3892,-2.388,-2.3869,-2.3871,-2.3868,-2.3872,-2.3893,-2.3894,-2.3894,-2.3894,0,-2.3194,-2.3213,-2.3263,-2.3319,-2.336,-2.3407,-2.3453,-2.3477,-2.3526,-2.3564,-2.362,-2.3657,-2.3729,-2.3785,-2.3843,-2.3875,-2.3893,-2.3897,-2.3906,-2.3896,-2.388,-2.3888,-2.3834,-2.3896,-2.3895,-2.3895,-2.3895,-2.3895,-2.3216,-2.325,-2.3305,-2.3359,-2.3398,-2.3442,-2.3478,-2.3517,-2.3565,-2.3627,-2.3648,-2.3706,-2.3758,-2.3838,-2.3871,-2.3917,-2.3917,-2.3929,-2.3932,-2.3935,-2.3934,-2.3873,-2.3928,-2.3928,-2.3928,-2.3928,-2.3928,0,-2.3256,-2.3293,-2.3342,-2.3407,-2.345,-2.3463,-2.3516,-2.355,-2.3601,-2.3648,-2.3694,-2.3759,-2.3813,-2.3861,-2.3917,-2.3944,-2.3953,-2.3957,-2.3955,-2.3963,-2.3931,-2.3917,-2.3949,-2.3949,-2.3949,-2.3949,-2.3949,-2.3949,-2.3283,-2.3341,-2.3367,-2.3445,-2.3482,-2.3539,-2.3568,-2.3608,-2.3646,-2.3717,-2.3762,-2.3793,-2.3841,-2.3901,-2.395,-2.3963,-2.3982,-2.3984,-2.3999,-2.3968,-2.3965,-2.3962,-2.395,-2.3988,-2.3988,-2.4027,-2.4027,-2.4027]}]]